WB4FAY-4 Weather Reports


time (UTC)temp
C
wind
direction
speed
KPH
gust
KPH
rain 1hr
cm
rain 24hr
cm
rain mn
cm
humidity
%
barometer
mb
20260502170518 17 14 6.4 16.1 0.00 0.00 0.00 46 1017.3
20260502164017 17 85 3.2 19.3 0.00 0.00 0.00 51 1017.3
20260502163518 16 90 11.3 19.3 0.00 0.00 0.00 48 1017.4
20260502163017 16 13 6.4 12.9 0.00 0.00 0.00 53 1017.5
20260502162517 16 346 0.0 19.3 0.00 0.00 0.00 53 1017.5
20260502162017 16 18 8.0 24.1 0.00 0.00 0.00 52 1017.6
20260502161517 16 360 4.8 16.1 0.00 0.00 0.00 55 1017.5
20260502161018 16 44 1.6 16.1 0.00 0.00 0.00 55 1017.5
20260502160517 16 93 1.6 16.1 0.00 0.00 0.00 55 1017.4
20260502152017 15 346 1.6 19.3 0.00 0.00 0.00 59 1017.2
20260502151517 15 24 0.0 14.5 0.00 0.00 0.00 61 1017.1
20260502151018 15 332 0.0 14.5 0.00 0.00 0.00 60 1017.0
20260502150517 15 352 4.8 11.3 0.00 0.00 0.00 61 1016.9
20260502130517 13 320 0.0 8.0 0.00 0.00 0.00 66 1015.5
20260502123518 13 18 0.0 16.1 0.00 0.00 0.00 65 1015.3
20260502123017 13 323 12.9 29.0 0.00 0.00 0.00 65 1015.3
20260502122517 13 325 4.8 19.3 0.00 0.00 0.00 65 1015.3
20260502122018 13 360 4.8 22.5 0.00 0.00 0.00 65 1015.3
20260502121517 13 335 11.3 17.7 0.00 0.00 0.00 66 1015.2
20260502121018 13 11 4.8 22.5 0.00 0.00 0.00 66 1015.1
20260502120518 13 13 0.0 12.9 0.00 0.00 0.00 66 1015.0
20260502115518 13 31 0.0 11.3 0.00 0.00 0.00 65 1014.9
20260502115018 13 353 6.4 11.3 0.00 0.00 0.00 65 1014.8
20260502114518 13 89 4.8 11.3 0.00 0.00 0.00 65 1014.7
20260502114017 13 13 0.0 6.4 0.00 0.00 0.00 65 1014.7
20260502113518 13 16 4.8 11.3 0.00 0.00 0.00 65 1014.7
20260502113017 13 8 4.8 12.9 0.00 0.00 0.00 64 1014.7
20260502112518 13 360 3.2 11.3 0.00 0.00 0.00 64 1014.7
20260502112018 13 335 0.0 11.3 0.00 0.00 0.00 64 1014.8
20260502111518 13 306 0.0 11.3 0.00 0.00 0.00 65 1014.9
20260502111017 13 3 4.8 14.5 0.00 0.00 0.00 64 1014.8
20260502110518 13 6 4.8 12.9 0.00 0.00 0.00 65 1014.7
20260502110018 13 20 3.2 14.5 0.00 0.00 0.00 65 1014.7
20260502105518 13 335 0.0 11.3 0.00 0.00 0.00 65 1014.5
20260502105018 13 21 3.2 9.7 0.00 0.00 0.00 65 1014.7
20260502104517 13 354 4.8 19.3 0.00 0.00 0.00 65 1014.4
20260502104018 13 7 6.4 8.0 0.00 0.00 0.00 66 1013.9
20260502103518 13 16 3.2 9.7 0.00 0.00 0.00 64 1014.5
20260502103017 13 320 6.4 14.5 0.00 0.00 0.00 64 1014.6
20260502102518 13 25 3.2 11.3 0.00 0.00 0.00 66 1014.4
20260502102018 13 18 0.0 12.9 0.00 0.00 0.00 66 1014.1
20260502101518 13 8 6.4 17.7 0.00 0.00 0.00 66 1014.7
20260502101018 13 332 11.3 16.1 0.00 0.00 0.00 67 1015.0
20260502100518 13 65 0.0 4.8 0.00 0.00 0.00 68 1014.9
20260502091517 13 31 4.8 9.7 0.00 0.00 0.00 73 1014.4
20260502091017 13 18 3.2 8.0 0.00 0.00 0.00 73 1014.4
20260502090517 13 329 1.6 12.9 0.00 0.00 0.00 73 1014.8
20260502071518 14 339 3.2 12.9 0.00 0.00 0.00 86 1014.4
20260502071017 14 133 1.6 9.7 0.00 0.00 0.00 88 1014.4
20260502070517 13 20 4.8 11.3 0.00 0.00 0.00 88 1014.7
20260502070017 13 336 1.6 14.5 0.00 0.00 0.00 90 1014.9
20260502065518 13 339 3.2 11.3 0.00 0.00 0.00 92 1014.9
20260502065017 13 18 9.7 8.0 0.00 0.00 0.00 94 1014.9
20260502064517 13 7 4.8 16.1 0.00 0.00 0.00 95 1015.0
20260502064017 13 10 12.9 9.7 0.00 0.00 0.00 96 1015.1
20260502063518 13 329 1.6 4.8 0.00 0.00 0.00 96 1015.1
20260502063017 14 339 3.2 6.4 0.00 0.00 0.00 96 1015.1
20260502062517 14 329 0.0 6.4 0.00 0.00 0.00 96 1014.9
20260502062017 14 0 0.0 0.0 0.00 0.00 0.00 96 1014.8
20260502061517 14 0 0.0 0.0 0.00 0.00 0.00 96 1014.9
20260502061018 14 0 0.0 0.0 0.00 0.00 0.00 96 1015.0
20260502060517 13 0 0.0 0.0 0.00 0.00 0.00 96 1015.1
20260502060017 14 0 0.0 0.0 0.00 0.00 0.00 96 1014.9
20260502055518 14 0 0.0 0.0 0.00 0.00 0.00 96 1014.8
20260502055017 13 0 0.0 0.0 0.00 0.00 0.00 96 1014.9
20260502054517 13 0 0.0 0.0 0.00 0.00 0.00 96 1014.9
20260502054017 13 0 0.0 0.0 0.00 0.00 0.00 96 1014.6
20260502053517 13 0 0.0 0.0 0.00 0.00 0.00 96 1014.7
20260502053017 13 0 0.0 0.0 0.00 0.00 0.00 96 1014.9
20260502052518 13 0 0.0 0.0 0.00 0.00 0.00 96 1014.9
20260502052017 13 0 0.0 0.0 0.00 0.00 0.00 96 1014.8
20260502051517 13 0 0.0 0.0 0.00 0.00 0.00 96 1014.7
20260502051017 14 0 0.0 0.0 0.00 0.00 0.00 96 1014.7
20260502050517 14 0 0.0 0.0 0.00 0.00 0.00 96 1014.8
20260502050017 14 0 0.0 0.0 0.00 0.00 0.00 96 1014.6
20260502045517 14 0 0.0 0.0 0.00 0.03 0.00 96 1014.9
20260502045017 14 0 0.0 0.0 0.00 0.03 0.00 96 1014.8
20260502044517 13 0 0.0 0.0 0.00 0.03 0.00 96 1014.8
20260502044017 14 0 0.0 0.0 0.00 0.03 0.00 96 1014.8
20260502043517 14 0 0.0 0.0 0.00 0.03 0.00 96 1014.6
20260502043017 14 0 0.0 0.0 0.00 0.03 0.00 96 1014.6
20260502042517 14 0 0.0 0.0 0.00 0.03 0.00 96 1014.4
20260502042017 14 0 0.0 0.0 0.00 0.03 0.00 96 1014.4
20260502041517 14 0 0.0 0.0 0.00 0.03 0.00 96 1014.4
20260502041017 14 0 0.0 0.0 0.00 0.03 0.00 96 1014.5
20260502040517 14 0 0.0 0.0 0.00 0.03 0.00 96 1014.4
20260502040017 14 0 0.0 0.0 0.00 0.03 0.00 96 1014.4
20260502035517 14 0 0.0 0.0 0.00 0.03 0.00 96 1014.3
20260502035017 14 0 0.0 0.0 0.00 0.03 0.00 96 1014.4
20260502034517 14 0 0.0 0.0 0.00 0.03 0.00 95 1014.4
20260502034017 14 0 0.0 0.0 0.00 0.03 0.00 95 1014.4
20260502033517 14 0 0.0 0.0 0.00 0.03 0.00 95 1014.6
20260502033017 14 0 0.0 0.0 0.00 0.03 0.00 95 1014.7
20260502032517 14 0 0.0 0.0 0.00 0.03 0.00 95 1014.9
20260502032017 14 0 0.0 0.0 0.00 0.03 0.00 95 1014.9
20260502031517 14 0 0.0 0.0 0.00 0.03 0.00 95 1014.9
20260502031017 14 0 0.0 0.0 0.00 0.03 0.00 95 1015.0
20260502030517 14 0 0.0 0.0 0.00 0.03 0.00 94 1015.1
20260502030017 14 0 0.0 0.0 0.00 0.03 0.00 94 1015.1
20260502025517 15 0 0.0 0.0 0.00 0.03 0.00 94 1015.1
20260502025017 15 0 0.0 0.0 0.00 0.03 0.00 94 1015.1
20260502024517 14 0 0.0 0.0 0.00 0.03 0.00 94 1015.2
20260502024017 14 0 0.0 0.0 0.00 0.03 0.00 93 1015.2
20260502023517 15 0 0.0 0.0 0.00 0.03 0.00 93 1015.2
20260502023017 15 0 0.0 0.0 0.00 0.03 0.00 93 1015.2
20260502022517 15 0 0.0 0.0 0.00 0.03 0.00 92 1015.3
20260502022017 15 0 0.0 0.0 0.00 0.03 0.00 92 1015.4
20260502021517 14 0 0.0 0.0 0.00 0.03 0.00 91 1015.4
20260502021017 15 0 0.0 0.0 0.00 0.03 0.00 90 1015.4
20260502020518 15 0 0.0 0.0 0.00 0.03 0.00 90 1015.5
20260502020017 15 0 0.0 0.0 0.00 0.03 0.00 89 1015.4
20260502015518 15 0 0.0 0.0 0.00 0.03 0.00 89 1015.5
20260502015017 15 0 0.0 0.0 0.00 0.03 0.00 88 1015.4
20260502014518 15 0 0.0 0.0 0.00 0.03 0.00 87 1015.3
20260502014017 15 0 0.0 0.0 0.00 0.03 0.00 86 1015.2
20260502013517 15 0 0.0 0.0 0.00 0.03 0.00 84 1015.2
20260502013017 15 0 0.0 0.0 0.00 0.03 0.00 82 1015.2
20260502012517 15 0 0.0 0.0 0.00 0.03 0.00 81 1015.2
20260502012017 16 0 0.0 0.0 0.00 0.03 0.00 79 1015.2
20260502011517 16 309 0.0 1.6 0.00 0.03 0.00 77 1015.1
20260502011017 16 333 1.6 3.2 0.00 0.03 0.00 75 1015.0
20260502010518 16 337 0.0 8.0 0.00 0.03 0.00 75 1014.9
20260502010017 16 58 3.2 9.7 0.00 0.03 0.00 74 1014.7
20260502005517 16 75 0.0 4.8 0.00 0.03 0.00 74 1014.5
20260502005017 16 32 1.6 4.8 0.00 0.03 0.00 74 1014.5
20260502004517 16 336 0.0 4.8 0.00 0.03 0.00 74 1014.4
20260502004017 16 312 4.8 3.2 0.00 0.03 0.00 74 1014.4
20260502003517 16 4 1.6 4.8 0.00 0.03 0.00 72 1014.4
20260502003017 16 0 0.0 0.0 0.00 0.03 0.00 71 1014.4
20260502002518 16 0 0.0 0.0 0.00 0.03 0.00 70 1014.5
20260502002017 16 0 0.0 0.0 0.00 0.03 0.00 70 1014.4
20260502001517 16 0 0.0 0.0 0.00 0.03 0.00 70 1014.3
20260502001017 17 0 0.0 0.0 0.00 0.03 0.00 68 1014.3
20260502000517 17 44 0.0 4.8 0.00 0.03 0.00 67 1014.1
20260502000017 17 0 0.0 0.0 0.00 0.03 0.00 67 1014.2
20260501235518 17 342 0.0 1.6 0.00 0.03 0.00 66 1014.2
20260501235017 17 360 0.0 3.2 0.00 0.03 0.00 63 1014.1
20260501234517 17 352 1.6 9.7 0.00 0.03 0.00 63 1014.0
20260501234017 17 336 0.0 11.3 0.00 0.03 0.00 62 1014.0
20260501233517 17 31 4.8 8.0 0.00 0.03 0.00 62 1014.0
20260501233017 17 354 0.0 4.8 0.00 0.03 0.00 62 1014.0
20260501232517 17 330 0.0 4.8 0.00 0.03 0.00 61 1014.0
20260501232018 17 330 4.8 9.7 0.00 0.03 0.00 62 1014.0
20260501231517 17 337 1.6 8.0 0.00 0.03 0.00 62 1014.1
20260501231017 17 20 0.0 4.8 0.00 0.03 0.00 64 1014.0
20260501230517 17 0 0.0 0.0 0.00 0.03 0.00 64 1014.0
20260501230017 17 13 0.0 6.4 0.00 0.03 0.00 63 1014.0
20260501225517 18 0 0.0 0.0 0.00 0.03 0.00 66 1014.0
20260501225017 18 0 0.0 0.0 0.00 0.03 0.00 62 1013.9
20260501224517 18 10 0.0 9.7 0.00 0.03 0.00 61 1013.9
20260501224016 18 38 1.6 8.0 0.00 0.03 0.00 61 1013.8
20260501223517 18 0 0.0 1.6 0.00 0.03 0.00 61 1013.9
20260501223017 18 27 0.0 9.7 0.00 0.03 0.00 61 1013.9
20260501222517 18 28 0.0 6.4 0.00 0.03 0.00 61 1014.1
20260501222017 18 14 0.0 9.7 0.00 0.03 0.00 61 1014.2
20260501221518 18 319 1.6 6.4 0.00 0.03 0.00 62 1014.1
20260501221017 18 339 0.0 8.0 0.00 0.03 0.00 64 1014.1
20260501220517 18 31 0.0 8.0 0.00 0.03 0.00 64 1014.0
20260501220018 18 0 4.8 0.0 0.00 0.03 0.00 64 1013.9
20260501215517 18 0 0.0 0.0 0.00 0.03 0.00 64 1013.9
20260501215017 18 40 0.0 1.6 0.00 0.03 0.00 63 1013.8
20260501214517 18 20 0.0 4.8 0.00 0.03 0.00 61 1013.6
20260501214017 18 0 0.0 0.0 0.00 0.03 0.00 62 1013.4
20260501213517 18 95 0.0 3.2 0.00 0.03 0.00 59 1013.4
20260501213023 18 113 3.2 8.0 0.00 0.03 0.00 58 1013.4
20260501212517 19 100 0.0 9.7 0.00 0.03 0.00 59 1013.3
20260501212017 19 92 0.0 9.7 0.00 0.03 0.00 59 1013.4
20260501211517 19 76 0.0 3.2 0.00 0.03 0.00 59 1013.4
20260501211017 18 0 0.0 0.0 0.00 0.03 0.00 58 1013.2
20260501210517 19 49 0.0 9.7 0.00 0.03 0.00 57 1013.3
20260501210017 18 106 0.0 8.0 0.00 0.03 0.00 57 1013.4
20260501205517 19 106 0.0 8.0 0.00 0.03 0.00 56 1013.6
20260501205017 19 82 0.0 6.4 0.00 0.03 0.00 56 1013.9
20260501204517 19 0 0.0 0.0 0.00 0.03 0.00 56 1014.1
20260501204017 19 343 0.0 11.3 0.00 0.03 0.00 55 1014.1
20260501203517 19 99 0.0 9.7 0.00 0.03 0.00 54 1014.4
20260501203022 19 90 8.0 8.0 0.00 0.03 0.00 53 1014.5
20260501202518 19 82 3.2 12.9 0.00 0.03 0.00 53 1014.5
20260501202017 19 106 4.8 14.5 0.00 0.03 0.00 51 1014.6
20260501201518 19 0 0.0 8.0 0.00 0.03 0.00 51 1014.6
20260501201017 19 95 6.4 12.9 0.00 0.03 0.00 51 1014.7
20260501200517 19 116 3.2 6.4 0.00 0.03 0.00 50 1014.8
20260501200018 19 18 3.2 9.7 0.00 0.03 0.00 52 1015.1
20260501195517 19 58 4.8 8.0 0.00 0.03 0.00 52 1015.2
20260501195017 19 42 0.0 12.9 0.00 0.03 0.00 53 1015.4
20260501194517 19 0 0.0 0.0 0.00 0.03 0.00 54 1015.5
20260501194018 18 45 0.0 9.7 0.00 0.03 0.00 52 1015.5
20260501193517 18 48 1.6 4.8 0.00 0.03 0.00 53 1015.6
20260501193017 18 61 0.0 4.8 0.00 0.03 0.00 54 1015.7
20260501192516 18 0 0.0 0.0 0.00 0.03 0.00 55 1015.7
20260501192017 18 1 0.0 9.7 0.00 0.03 0.00 52 1015.6
20260501191518 18 10 0.0 9.7 0.00 0.03 0.00 52 1015.6
20260501191017 18 61 0.0 1.6 0.00 0.03 0.00 55 1015.6
20260501190518 18 51 0.0 4.8 0.00 0.03 0.00 51 1015.6
20260501190017 18 333 3.2 11.3 0.00 0.03 0.00 51 1015.6
20260501185518 18 18 0.0 1.6 0.00 0.03 0.00 52 1015.7
20260501185017 19 107 1.6 8.0 0.00 0.03 0.00 52 1015.7
20260501184518 19 83 4.8 11.3 0.00 0.03 0.00 52 1015.6
20260501184017 19 11 3.2 9.7 0.00 0.03 0.00 55 1015.4
20260501183517 19 71 0.0 6.4 0.00 0.03 0.00 56 1015.4
20260501183017 18 47 1.6 4.8 0.00 0.03 0.00 53 1015.4
20260501182516 19 66 0.0 1.6 0.00 0.03 0.00 55 1015.4
20260501182017 19 69 1.6 3.2 0.00 0.03 0.00 55 1015.3
20260501181518 19 100 0.0 9.7 0.00 0.03 0.00 57 1015.3
20260501181017 19 311 0.0 3.2 0.00 0.03 0.00 59 1015.4
20260501180517 18 350 1.6 6.4 0.00 0.03 0.00 60 1015.5